Home   Weather   Adamstown   Past weeks
Flag for Pitcairn Islands

Past Weather in Adamstown, Pitcairn Islands — Yesterday and Last 2 Weeks

Now
65 °F

Mild.


Feels Like: 65 °F
Forecast: 69 / 65 °F
Wind: 9 mph from South

Location: Rikitea

Current Time: Jul 21, 2019 at 11:42:37 pm

Latest Report: Jul 21, 2019 at 10:00 pm


Visibility: N/A

Pressure: 30.15 "Hg

Humidity: 76%

Dew Point: 57 °F

Location of AdamstownLocation

Past Weather in Adamstown — Graph

°F

Adamstown Temperature Yesterday

Maximum temperature yesterday: 69 °F (at 2:00 pm)
Minimum temperature yesterday: 59 °F (at 6:00 am)
Average temperature yesterday: 64 °F

High & Low Weather Summary for the Past Weeks

 TemperatureHumidityPressure
High78 °F (Jul 15, 12:00 pm)98% (Jul 8, 6:00 am)30.20 "Hg (Jul 8, 6:00 am)
Low59 °F (Jul 20, 6:00 am)53% (Jul 20, 2:00 pm)29.67 "Hg (Jul 17, 3:00 pm)
Average69 °F84%29.99 "Hg
* Reported Jul 6 10:00 pm — Jul 21 10:00 pm, Adamstown. Weather by CustomWeather, © 2019

Note: Actual official high and low records may vary slightly from our data, if they occured in-between our weather recording intervals... More about our weather records

Advertising

Adamstown Weather History for the Previous 24 Hours

Scroll right to see more
 ConditionsComfort  
Time TempWeatherWind HumidityBarometerVisibility
10:00 pm
Sun, Jul 21
65 °FMild.9 mph76%30.15 "HgN/A
9:00 pm65 °FMild.9 mph76%30.15 "HgN/A
8:00 pm65 °FMild.9 mph76%30.15 "HgN/A
7:00 pm65 °FMild.10 mph74%30.14 "HgN/A
6:00 pm65 °FMild.8 mph75%30.12 "HgN/A
5:00 pm65 °FPassing clouds.7 mph76%30.11 "Hg25 mi
4:00 pm67 °FPassing clouds.7 mph69%30.10 "Hg25 mi
3:00 pm69 °FPassing clouds.6 mph68%30.09 "Hg25 mi
2:00 pm70 °FPassing clouds.6 mph66%30.10 "Hg25 mi
1:00 pm69 °FPassing clouds.7 mph65%30.11 "Hg25 mi
12:00 pm68 °FPassing clouds.7 mph68%30.14 "Hg25 mi
11:00 am67 °FPassing clouds.6 mph68%30.16 "Hg25 mi
10:00 am65 °FPartly sunny.8 mph75%30.16 "Hg25 mi
9:00 am64 °FOvercast.6 mph72%30.15 "Hg25 mi
8:00 am64 °FScattered clouds.9 mph74%30.12 "Hg25 mi
7:00 am64 °FPassing clouds.6 mph71%30.09 "Hg19 mi
6:00 am63 °FMild.7 mph70%30.08 "HgN/A
4:00 am64 °FMild.8 mph75%30.08 "HgN/A
3:00 am64 °FMild.6 mph71%30.08 "HgN/A
2:00 am65 °FMild.5 mph67%30.09 "HgN/A
1:00 am64 °FMild.5 mph67%30.09 "HgN/A
12:00 am64 °FMild.5 mph68%30.10 "HgN/A
11:00 pm
Sat, Jul 20
65 °FMild.3 mph60%30.09 "HgN/A
Weather by CustomWeather, © 2019

See weather overview